Time,TemperatureF,DewpointF,PressureIn,WindDirection,WindDirectionDegrees,WindSpeedMPH,WindSpeedGustMPH,Humidity,HourlyPrecipIn,Conditions,Clouds,dailyrainin,SoftwareType,DateUTC
2013-03-08 00:00:00,29.5,25.3,30.41,NNW,341,0.0,2.0,84,0.00,,---,0.01,VWS V14.01,2013-03-08 05:00:00,
2013-03-08 00:02:00,29.5,25.3,30.41,NNW,341,0.0,2.0,84,0.00,,---,0.01,VWS V14.01,2013-03-08 05:02:00,
2013-03-08 00:07:00,29.4,25.5,30.41,NNW,341,0.0,1.0,85,0.00,,---,0.00,VWS V14.01,2013-03-08 05:07:00,
2013-03-08 00:12:00,29.2,25.0,30.41,NNW,341,0.0,1.0,84,0.00,,---,0.00,VWS V14.01,2013-03-08 05:12:00,
2013-03-08 00:17:00,28.9,25.0,30.41,NNW,342,0.0,1.0,85,0.00,,---,0.00,VWS V14.01,2013-03-08 05:17:00,
2013-03-08 00:22:00,28.3,24.4,30.41,NNW,342,0.0,1.0,85,0.00,,---,0.00,VWS V14.01,2013-03-08 05:22:00,
2013-03-08 00:27:00,28.0,24.4,30.41,NNW,342,0.0,1.0,86,0.00,,---,0.00,VWS V14.01,2013-03-08 05:27:00,
2013-03-08 00:30:00,24.7,22.2,30.42,NNW,342,0.0,0.0,90,0.00,,---,0.00,VWS V14.01,2013-03-08 05:30:00,
2013-03-08 00:32:00,27.7,24.3,30.41,NNW,341,0.0,0.0,87,0.00,,---,0.00,VWS V14.01,2013-03-08 05:32:00,
2013-03-08 00:37:00,27.4,24.3,30.41,NNW,342,0.0,0.0,88,0.00,,---,0.00,VWS V14.01,2013-03-08 05:37:00,
2013-03-08 00:42:00,27.4,24.6,30.42,NNW,341,0.0,0.0,89,0.00,,---,0.00,VWS V14.01,2013-03-08 05:42:00,
2013-03-08 00:47:00,27.4,24.6,30.42,NNW,342,0.0,0.0,89,0.00,,---,0.00,VWS V14.01,2013-03-08 05:47:00,
2013-03-08 00:52:00,27.1,24.0,30.42,NNW,342,0.0,0.0,88,0.00,,---,0.00,VWS V14.01,2013-03-08 05:52:00,
2013-03-08 00:57:00,26.7,23.9,30.42,NNW,342,0.0,0.0,89,0.00,,---,0.00,VWS V14.01,2013-03-08 05:57:00,
2013-03-08 01:00:00,23.6,21.6,30.43,NNW,341,0.0,0.0,92,0.00,,---,0.00,VWS V14.01,2013-03-08 06:00:00,
2013-03-08 01:02:00,26.5,23.7,30.42,NNW,341,0.0,0.0,89,0.00,,---,0.00,VWS V14.01,2013-03-08 06:02:00,
2013-03-08 01:07:00,26.3,23.8,30.42,NNW,342,0.0,0.0,90,0.00,,---,0.00,VWS V14.01,2013-03-08 06:07:00,
2013-03-08 01:12:00,26.4,23.9,30.42,NNW,342,0.0,0.0,90,0.00,,---,0.00,VWS V14.01,2013-03-08 06:12:00,
2013-03-08 01:17:00,25.9,23.1,30.42,NNW,342,0.0,0.0,89,0.00,,---,0.00,VWS V14.01,2013-03-08 06:17:00,
2013-03-08 01:22:00,25.5,23.0,30.42,NNW,341,0.0,0.0,90,0.00,,---,0.00,VWS V14.01,2013-03-08 06:22:00,
2013-03-08 01:27:00,25.2,22.7,30.42,NNW,342,0.0,0.0,90,0.00,,---,0.00,VWS V14.01,2013-03-08 06:27:00,
2013-03-08 01:30:00,23.7,22.0,30.43,NNW,340,0.0,0.0,93,0.00,,---,0.00,VWS V14.01,2013-03-08 06:30:00,
2013-03-08 01:32:00,24.7,22.2,30.42,NNW,342,0.0,0.0,90,0.00,,---,0.00,VWS V14.01,2013-03-08 06:32:00,
2013-03-08 01:37:00,24.2,21.7,30.43,NNW,342,0.0,0.0,90,0.00,,---,0.00,VWS V14.01,2013-03-08 06:37:00,
2013-03-08 01:42:00,23.6,21.1,30.43,NNW,342,0.0,0.0,90,0.00,,---,0.00,VWS V14.01,2013-03-08 06:42:00,
2013-03-08 01:47:00,23.4,21.2,30.43,NNW,341,0.0,0.0,91,0.00,,---,0.00,VWS V14.01,2013-03-08 06:47:00,
2013-03-08 01:52:00,23.9,21.9,30.42,NNW,342,0.0,0.0,92,0.00,,---,0.00,VWS V14.01,2013-03-08 06:52:00,
2013-03-08 01:57:00,23.8,21.8,30.43,NNW,342,0.0,0.0,92,0.00,,---,0.00,VWS V14.01,2013-03-08 06:57:00,
2013-03-08 02:00:00,23.9,22.4,30.43,NW,318,0.0,3.0,94,0.00,,---,0.00,VWS V14.01,2013-03-08 07:00:00,
2013-03-08 02:02:00,23.5,21.5,30.43,NNW,342,0.0,0.0,92,0.00,,---,0.00,VWS V14.01,2013-03-08 07:02:00,
2013-03-08 02:07:00,23.5,21.8,30.43,NNW,341,0.0,0.0,93,0.00,,---,0.00,VWS V14.01,2013-03-08 07:07:00,
2013-03-08 02:12:00,23.5,21.8,30.43,NNW,342,0.0,0.0,93,0.00,,---,0.00,VWS V14.01,2013-03-08 07:12:00,
2013-03-08 02:17:00,23.6,21.9,30.43,NNW,340,0.0,0.0,93,0.00,,---,0.00,VWS V14.01,2013-03-08 07:17:00,
2013-03-08 02:22:00,23.9,22.4,30.43,NNW,340,0.0,0.0,94,0.00,,---,0.00,VWS V14.01,2013-03-08 07:22:00,
2013-03-08 02:27:00,23.9,22.2,30.43,NNW,340,0.0,0.0,93,0.00,,---,0.00,VWS V14.01,2013-03-08 07:27:00,
2013-03-08 02:30:00,22.9,20.9,30.43,NW,317,0.0,0.0,92,0.00,,---,0.00,VWS V14.01,2013-03-08 07:30:00,
2013-03-08 02:32:00,23.6,21.9,30.43,NNW,340,0.0,0.0,93,0.00,,---,0.00,VWS V14.01,2013-03-08 07:32:00,
2013-03-08 02:37:00,23.3,21.6,30.43,NNW,340,0.0,0.0,93,0.00,,---,0.00,VWS V14.01,2013-03-08 07:37:00,
2013-03-08 02:42:00,23.3,21.6,30.43,NNW,340,0.0,0.0,93,0.00,,---,0.00,VWS V14.01,2013-03-08 07:42:00,
2013-03-08 02:47:00,23.3,21.6,30.43,NNW,339,0.0,0.0,93,0.00,,---,0.00,VWS V14.01,2013-03-08 07:47:00,
2013-03-08 02:52:00,23.3,21.6,30.42,NNW,339,0.0,0.0,93,0.00,,---,0.00,VWS V14.01,2013-03-08 07:52:00,
2013-03-08 02:57:00,23.5,22.0,30.42,NNE,18,1.0,3.0,94,0.00,,---,0.00,VWS V14.01,2013-03-08 07:57:00,
2013-03-08 03:00:00,20.9,18.7,30.43,NW,317,0.0,0.0,91,0.00,,---,0.00,VWS V14.01,2013-03-08 08:00:00,
2013-03-08 03:02:00,23.9,22.4,30.43,NW,317,0.0,0.0,94,0.00,,---,0.00,VWS V14.01,2013-03-08 08:02:00,
2013-03-08 03:07:00,23.6,21.9,30.42,NW,317,0.0,0.0,93,0.00,,---,0.00,VWS V14.01,2013-03-08 08:07:00,
2013-03-08 03:12:00,23.5,21.5,30.42,NW,317,0.0,0.0,92,0.00,,---,0.00,VWS V14.01,2013-03-08 08:12:00,
2013-03-08 03:17:00,23.4,21.4,30.42,NW,317,0.0,0.0,92,0.00,,---,0.00,VWS V14.01,2013-03-08 08:17:00,
2013-03-08 03:22:00,23.2,21.2,30.43,NW,317,0.0,0.0,92,0.00,,---,0.00,VWS V14.01,2013-03-08 08:22:00,
2013-03-08 03:27:00,23.1,21.1,30.43,NW,317,0.0,0.0,92,0.00,,---,0.00,VWS V14.01,2013-03-08 08:27:00,
2013-03-08 03:30:00,20.6,18.9,30.44,NW,318,0.0,0.0,93,0.00,,---,0.00,VWS V14.01,2013-03-08 08:30:00,
2013-03-08 03:32:00,22.9,20.9,30.43,NW,317,0.0,0.0,92,0.00,,---,0.00,VWS V14.01,2013-03-08 08:32:00,
2013-03-08 03:37:00,22.7,20.7,30.43,NW,317,0.0,0.0,92,0.00,,---,0.00,VWS V14.01,2013-03-08 08:37:00,
2013-03-08 03:43:00,22.5,20.5,30.43,NW,318,0.0,0.0,92,0.00,,---,0.00,VWS V14.01,2013-03-08 08:43:00,
2013-03-08 03:48:00,22.0,19.8,30.43,NW,317,0.0,0.0,91,0.00,,---,0.00,VWS V14.01,2013-03-08 08:48:00,
2013-03-08 03:53:00,21.8,19.6,30.43,NW,317,0.0,0.0,91,0.00,,---,0.00,VWS V14.01,2013-03-08 08:53:00,
2013-03-08 03:58:00,21.3,19.1,30.43,NW,317,0.0,0.0,91,0.00,,---,0.00,VWS V14.01,2013-03-08 08:58:00,
2013-03-08 04:00:00,19.8,18.1,30.45,NW,318,0.0,0.0,93,0.00,,---,0.00,VWS V14.01,2013-03-08 09:00:00,
2013-03-08 04:03:00,20.8,18.6,30.43,NW,317,0.0,0.0,91,0.00,,---,0.00,VWS V14.01,2013-03-08 09:03:00,
2013-03-08 04:08:00,20.7,18.8,30.43,NW,317,0.0,0.0,92,0.00,,---,0.00,VWS V14.01,2013-03-08 09:08:00,
2013-03-08 04:13:00,21.0,19.3,30.44,NW,318,0.0,0.0,93,0.00,,---,0.00,VWS V14.01,2013-03-08 09:13:00,
2013-03-08 04:18:00,20.9,19.2,30.44,NW,317,0.0,0.0,93,0.00,,---,0.00,VWS V14.01,2013-03-08 09:18:00,
2013-03-08 04:23:00,20.6,18.6,30.44,NW,318,0.0,0.0,92,0.00,,---,0.00,VWS V14.01,2013-03-08 09:23:00,
2013-03-08 04:28:00,20.6,18.9,30.44,NW,318,0.0,0.0,93,0.00,,---,0.00,VWS V14.01,2013-03-08 09:28:00,
2013-03-08 04:30:00,18.5,16.6,30.46,NW,317,0.0,0.0,92,0.00,,---,0.00,VWS V14.01,2013-03-08 09:30:00,
2013-03-08 04:33:00,20.6,18.9,30.44,NW,317,0.0,0.0,93,0.00,,---,0.00,VWS V14.01,2013-03-08 09:33:00,
2013-03-08 04:38:00,20.5,18.8,30.44,NW,318,0.0,0.0,93,0.00,,---,0.00,VWS V14.01,2013-03-08 09:38:00,
2013-03-08 04:43:00,20.4,18.7,30.45,NW,317,0.0,0.0,93,0.00,,---,0.00,VWS V14.01,2013-03-08 09:43:00,
2013-03-08 04:48:00,20.2,18.5,30.45,NW,318,0.0,0.0,93,0.00,,---,0.00,VWS V14.01,2013-03-08 09:48:00,
2013-03-08 04:53:00,20.0,18.3,30.45,NW,317,0.0,0.0,93,0.00,,---,0.00,VWS V14.01,2013-03-08 09:53:00,
2013-03-08 04:58:00,19.6,17.9,30.45,NW,318,0.0,0.0,93,0.00,,---,0.00,VWS V14.01,2013-03-08 09:58:00,
2013-03-08 05:00:00,17.3,15.6,30.46,NW,318,0.0,0.0,93,0.00,,---,0.00,VWS V14.01,2013-03-08 10:00:00,
2013-03-08 05:03:00,19.8,18.1,30.45,NW,318,0.0,0.0,93,0.00,,---,0.00,VWS V14.01,2013-03-08 10:03:00,
2013-03-08 05:08:00,19.8,18.1,30.45,NW,318,0.0,0.0,93,0.00,,---,0.00,VWS V14.01,2013-03-08 10:08:00,
2013-03-08 05:13:00,19.4,17.7,30.45,NW,318,0.0,0.0,93,0.00,,---,0.00,VWS V14.01,2013-03-08 10:13:00,
2013-03-08 05:18:00,19.3,17.6,30.45,NW,317,0.0,0.0,93,0.00,,---,0.00,VWS V14.01,2013-03-08 10:18:00,
2013-03-08 05:23:00,19.2,17.5,30.46,NW,318,0.0,0.0,93,0.00,,---,0.00,VWS V14.01,2013-03-08 10:23:00,
2013-03-08 05:29:00,18.8,17.1,30.46,NW,318,0.0,0.0,93,0.00,,---,0.00,VWS V14.01,2013-03-08 10:29:00,
2013-03-08 05:30:00,16.9,15.2,30.47,NW,318,0.0,0.0,93,0.00,,---,0.00,VWS V14.01,2013-03-08 10:30:00,
2013-03-08 05:34:00,18.5,16.8,30.46,NW,317,0.0,0.0,93,0.00,,---,0.00,VWS V14.01,2013-03-08 10:34:00,
2013-03-08 05:39:00,18.1,16.2,30.46,NW,317,0.0,0.0,92,0.00,,---,0.00,VWS V14.01,2013-03-08 10:39:00,
2013-03-08 05:44:00,17.9,16.0,30.46,NW,317,0.0,0.0,92,0.00,,---,0.00,VWS V14.01,2013-03-08 10:44:00,
2013-03-08 05:49:00,17.8,16.1,30.46,NW,317,0.0,0.0,93,0.00,,---,0.00,VWS V14.01,2013-03-08 10:49:00,
2013-03-08 05:54:00,18.2,16.8,30.46,NW,317,0.0,0.0,94,0.00,,---,0.00,VWS V14.01,2013-03-08 10:54:00,
2013-03-08 05:59:00,17.6,15.9,30.46,NW,317,0.0,0.0,93,0.00,,---,0.00,VWS V14.01,2013-03-08 10:59:00,
2013-03-08 06:00:00,16.2,14.5,30.48,NW,318,0.0,0.0,93,0.00,,---,0.00,VWS V14.01,2013-03-08 11:00:00,
2013-03-08 06:04:00,17.3,15.6,30.46,NW,318,0.0,0.0,93,0.00,,---,0.00,VWS V14.01,2013-03-08 11:04:00,
2013-03-08 06:09:00,17.2,15.5,30.46,NW,318,0.0,0.0,93,0.00,,---,0.00,VWS V14.01,2013-03-08 11:09:00,
2013-03-08 06:14:00,16.7,14.8,30.47,NW,317,0.0,0.0,92,0.00,,---,0.00,VWS V14.01,2013-03-08 11:14:00,
2013-03-08 06:19:00,16.3,14.4,30.46,NW,317,0.0,0.0,92,0.00,,---,0.00,VWS V14.01,2013-03-08 11:19:00,
2013-03-08 06:24:00,16.8,15.1,30.47,NW,317,0.0,0.0,93,0.00,,---,0.00,VWS V14.01,2013-03-08 11:24:00,
2013-03-08 06:29:00,16.8,15.1,30.47,NW,318,0.0,0.0,93,0.00,,---,0.00,VWS V14.01,2013-03-08 11:29:00,
2013-03-08 06:30:00,16.6,14.9,30.48,NW,317,0.0,0.0,93,0.00,,---,0.00,VWS V14.01,2013-03-08 11:30:00,
2013-03-08 06:34:00,16.9,15.2,30.47,NW,318,0.0,0.0,93,0.00,,---,0.00,VWS V14.01,2013-03-08 11:34:00,
2013-03-08 06:39:00,16.9,15.2,30.47,NW,317,0.0,0.0,93,0.00,,---,0.00,VWS V14.01,2013-03-08 11:39:00,
2013-03-08 06:44:00,16.7,15.0,30.48,NW,318,0.0,0.0,93,0.00,,---,0.00,VWS V14.01,2013-03-08 11:44:00,
2013-03-08 06:49:00,16.6,14.9,30.48,NW,317,0.0,0.0,93,0.00,,---,0.00,VWS V14.01,2013-03-08 11:49:00,
2013-03-08 06:54:00,16.4,14.7,30.48,NW,318,0.0,0.0,93,0.00,,---,0.00,VWS V14.01,2013-03-08 11:54:00,
2013-03-08 06:59:00,16.1,14.2,30.48,NW,318,0.0,0.0,92,0.00,,---,0.00,VWS V14.01,2013-03-08 11:59:00,
2013-03-08 07:00:00,18.4,17.0,30.49,NW,318,0.0,0.0,94,0.00,,---,0.00,VWS V14.01,2013-03-08 12:00:00,
2013-03-08 07:04:00,16.2,14.5,30.48,NW,317,0.0,0.0,93,0.00,,---,0.00,VWS V14.01,2013-03-08 12:04:00,
2013-03-08 07:09:00,16.1,14.4,30.48,NW,318,0.0,0.0,93,0.00,,---,0.00,VWS V14.01,2013-03-08 12:09:00,
2013-03-08 07:14:00,15.8,13.9,30.48,NW,318,0.0,0.0,92,0.00,,---,0.00,VWS V14.01,2013-03-08 12:14:00,
2013-03-08 07:19:00,15.9,14.2,30.48,NW,317,0.0,0.0,93,0.00,,---,0.00,VWS V14.01,2013-03-08 12:19:00,
2013-03-08 07:24:00,16.2,14.5,30.48,NW,318,0.0,0.0,93,0.00,,---,0.00,VWS V14.01,2013-03-08 12:24:00,
2013-03-08 07:29:00,16.5,14.8,30.48,NW,318,0.0,0.0,93,0.00,,---,0.00,VWS V14.01,2013-03-08 12:29:00,
2013-03-08 07:30:00,21.9,20.4,30.50,NW,318,0.0,0.0,94,0.00,,---,0.00,VWS V14.01,2013-03-08 12:30:00,
2013-03-08 07:34:00,16.5,14.8,30.48,NW,318,0.0,0.0,93,0.00,,---,0.00,VWS V14.01,2013-03-08 12:34:00,
2013-03-08 07:39:00,16.4,14.7,30.48,NW,317,0.0,0.0,93,0.00,,---,0.00,VWS V14.01,2013-03-08 12:39:00,
2013-03-08 07:44:00,16.5,14.8,30.49,NW,317,0.0,0.0,93,0.00,,---,0.00,VWS V14.01,2013-03-08 12:44:00,
2013-03-08 07:49:00,16.6,14.9,30.49,NW,317,0.0,0.0,93,0.00,,---,0.00,VWS V14.01,2013-03-08 12:49:00,
2013-03-08 07:54:00,17.3,15.6,30.49,NW,317,0.0,0.0,93,0.00,,---,0.00,VWS V14.01,2013-03-08 12:54:00,
2013-03-08 07:59:00,18.1,16.7,30.49,NW,318,0.0,0.0,94,0.00,,---,0.00,VWS V14.01,2013-03-08 12:59:00,
2013-03-08 08:00:00,26.6,23.0,30.50,NW,317,0.0,1.0,86,0.00,,---,0.00,VWS V14.01,2013-03-08 13:00:00,
2013-03-08 08:04:00,18.5,17.1,30.49,NW,317,0.0,0.0,94,0.00,,---,0.00,VWS V14.01,2013-03-08 13:04:00,
2013-03-08 08:09:00,18.8,17.1,30.49,NW,317,0.0,0.0,93,0.00,,---,0.00,VWS V14.01,2013-03-08 13:09:00,
2013-03-08 08:14:00,19.4,18.0,30.49,NW,318,0.0,0.0,94,0.00,,---,0.00,VWS V14.01,2013-03-08 13:14:00,
2013-03-08 08:19:00,20.0,18.5,30.49,NW,318,0.0,0.0,94,0.00,,---,0.00,VWS V14.01,2013-03-08 13:19:00,
2013-03-08 08:24:00,20.7,19.2,30.50,NW,318,0.0,0.0,94,0.00,,---,0.00,VWS V14.01,2013-03-08 13:24:00,
2013-03-08 08:29:00,21.6,20.1,30.50,NW,318,0.0,0.0,94,0.00,,---,0.00,VWS V14.01,2013-03-08 13:29:00,
2013-03-08 08:30:00,32.3,22.9,30.51,SSE,158,1.0,3.0,68,0.00,,---,0.00,VWS V14.01,2013-03-08 13:30:00,
2013-03-08 08:34:00,22.2,20.7,30.50,NW,318,0.0,0.0,94,0.00,,---,0.00,VWS V14.01,2013-03-08 13:34:00,
2013-03-08 08:39:00,22.9,21.2,30.50,NW,317,0.0,0.0,93,0.00,,---,0.00,VWS V14.01,2013-03-08 13:39:00,
2013-03-08 08:44:00,23.7,22.0,30.50,NW,317,0.0,1.0,93,0.00,,---,0.00,VWS V14.01,2013-03-08 13:44:00,
2013-03-08 08:49:00,24.3,22.3,30.50,NW,318,0.0,1.0,92,0.00,,---,0.00,VWS V14.01,2013-03-08 13:49:00,
2013-03-08 08:54:00,25.2,23.2,30.50,NW,317,0.0,1.0,92,0.00,,---,0.00,VWS V14.01,2013-03-08 13:54:00,
2013-03-08 08:59:00,26.1,23.3,30.51,NW,317,1.0,1.0,89,0.00,,---,0.00,VWS V14.01,2013-03-08 13:59:00,
2013-03-08 09:00:00,36.0,22.3,30.51,East,88,0.0,3.0,57,0.00,,---,0.00,VWS V14.01,2013-03-08 14:00:00,
2013-03-08 09:04:00,27.0,23.1,30.51,NW,318,1.0,1.0,85,0.00,,---,0.00,VWS V14.01,2013-03-08 14:04:00,
2013-03-08 09:09:00,27.8,23.3,30.51,NW,318,0.0,1.0,83,0.00,,---,0.00,VWS V14.01,2013-03-08 14:09:00,
2013-03-08 09:14:00,28.5,23.4,30.51,NW,317,0.0,1.0,81,0.00,,---,0.00,VWS V14.01,2013-03-08 14:14:00,
2013-03-08 09:19:00,29.3,23.6,30.51,NW,317,0.0,1.0,79,0.00,,---,0.00,VWS V14.01,2013-03-08 14:19:00,
2013-03-08 09:24:00,30.2,24.2,30.51,NW,309,0.0,1.0,78,0.00,,---,0.00,VWS V14.01,2013-03-08 14:24:00,
2013-03-08 09:29:00,31.9,23.6,30.51,East,94,0.0,3.0,71,0.00,,---,0.00,VWS V14.01,2013-03-08 14:29:00,
2013-03-08 09:30:00,36.3,21.7,30.51,ESE,120,3.0,7.0,55,0.00,,---,0.00,VWS V14.01,2013-03-08 14:30:00,
2013-03-08 09:34:00,32.9,23.2,30.51,North,352,0.0,2.0,67,0.00,,---,0.00,VWS V14.01,2013-03-08 14:34:00,
2013-03-08 09:39:00,33.8,22.5,30.51,NE,37,0.0,3.0,63,0.00,,---,0.00,VWS V14.01,2013-03-08 14:39:00,
2013-03-08 09:44:00,33.9,22.3,30.51,SE,125,0.0,3.0,62,0.00,,---,0.00,VWS V14.01,2013-03-08 14:44:00,
2013-03-08 09:49:00,34.6,22.5,30.51,ENE,67,1.0,3.0,61,0.00,,---,0.00,VWS V14.01,2013-03-08 14:49:00,
2013-03-08 09:54:00,35.2,22.7,30.51,NNE,32,0.0,3.0,60,0.00,,---,0.00,VWS V14.01,2013-03-08 14:54:00,
2013-03-08 10:00:00,36.0,22.7,30.51,NE,50,0.0,3.0,58,0.00,,---,0.00,VWS V14.01,2013-03-08 15:00:00,
2013-03-08 10:05:00,36.0,22.3,30.51,NW,321,1.0,4.0,57,0.00,,---,0.00,VWS V14.01,2013-03-08 15:05:00,
2013-03-08 10:10:00,35.8,21.6,30.51,SE,145,1.0,4.0,56,0.00,,---,0.00,VWS V14.01,2013-03-08 15:10:00,
2013-03-08 10:15:00,35.9,22.2,30.51,NNE,33,2.0,4.0,57,0.00,,---,0.00,VWS V14.01,2013-03-08 15:15:00,
2013-03-08 10:20:00,35.7,21.6,30.51,NNE,25,2.0,4.0,56,0.00,,---,0.00,VWS V14.01,2013-03-08 15:20:00,
2013-03-08 10:25:00,35.6,21.5,30.51,North,352,1.0,7.0,56,0.00,,---,0.00,VWS V14.01,2013-03-08 15:25:00,
2013-03-08 10:30:00,36.1,21.5,30.51,SE,129,1.0,7.0,55,0.00,,---,0.00,VWS V14.01,2013-03-08 15:30:00,
2013-03-08 10:35:00,36.5,21.0,30.50,East,90,2.0,3.0,53,0.00,,---,0.00,VWS V14.01,2013-03-08 15:35:00,
2013-03-08 10:40:00,36.9,21.8,30.50,ESE,122,1.0,4.0,54,0.00,,---,0.00,VWS V14.01,2013-03-08 15:40:00,
2013-03-08 10:45:00,37.7,21.7,30.51,SSW,207,1.0,4.0,52,0.00,,---,0.00,VWS V14.01,2013-03-08 15:45:00,
2013-03-08 10:50:00,37.5,20.6,30.51,NE,50,2.0,4.0,50,0.00,,---,0.00,VWS V14.01,2013-03-08 15:50:00,
2013-03-08 10:55:00,36.9,20.9,30.51,ESE,108,0.0,4.0,52,0.00,,---,0.00,VWS V14.01,2013-03-08 15:55:00,
2013-03-08 11:00:00,37.9,21.9,30.51,NE,54,2.0,4.0,52,0.00,,---,0.00,VWS V14.01,2013-03-08 16:00:00,
2013-03-08 11:05:00,38.5,22.0,30.51,ENE,65,1.0,3.0,51,0.00,,---,0.00,VWS V14.01,2013-03-08 16:05:00,
2013-03-08 11:10:00,38.8,22.2,30.51,NE,53,1.0,5.0,51,0.00,,---,0.00,VWS V14.01,2013-03-08 16:10:00,
2013-03-08 11:15:00,39.2,22.1,30.51,SW,228,0.0,5.0,50,0.00,,---,0.00,VWS V14.01,2013-03-08 16:15:00,
2013-03-08 11:20:00,39.8,21.7,30.51,NNW,348,0.0,5.0,48,0.00,,---,0.00,VWS V14.01,2013-03-08 16:20:00,
2013-03-08 11:25:00,39.6,22.0,30.51,NNE,20,0.0,5.0,49,0.00,,---,0.00,VWS V14.01,2013-03-08 16:25:00,
2013-03-08 11:30:00,39.8,22.2,30.51,NNE,15,1.0,5.0,49,0.00,,---,0.00,VWS V14.01,2013-03-08 16:30:00,
2013-03-08 11:35:00,39.5,21.9,30.51,WNW,290,2.0,3.0,49,0.00,,---,0.00,VWS V14.01,2013-03-08 16:35:00,
2013-03-08 11:40:00,39.2,21.7,30.51,NNW,347,0.0,3.0,49,0.00,,---,0.00,VWS V14.01,2013-03-08 16:40:00,
2013-03-08 11:45:00,39.5,22.4,30.51,SE,127,1.0,4.0,50,0.00,,---,0.00,VWS V14.01,2013-03-08 16:45:00,
2013-03-08 11:50:00,40.3,22.7,30.51,East,86,4.0,4.0,49,0.00,,---,0.00,VWS V14.01,2013-03-08 16:50:00,
2013-03-08 11:55:00,40.2,22.1,30.51,ESE,119,2.0,7.0,48,0.00,,---,0.00,VWS V14.01,2013-03-08 16:55:00,
2013-03-08 12:00:00,40.0,22.4,30.51,SSW,195,1.0,7.0,49,0.00,,---,0.00,VWS V14.01,2013-03-08 17:00:00,
2013-03-08 12:05:00,39.8,21.7,30.51,SE,142,1.0,5.0,48,0.00,,---,0.00,VWS V14.01,2013-03-08 17:05:00,
2013-03-08 12:10:00,40.4,22.8,30.50,East,86,1.0,5.0,49,0.00,,---,0.00,VWS V14.01,2013-03-08 17:10:00,
2013-03-08 12:15:00,40.6,23.0,30.50,East,81,2.0,5.0,49,0.00,,---,0.00,VWS V14.01,2013-03-08 17:15:00,
2013-03-08 12:20:00,40.4,22.8,30.50,SE,139,2.0,5.0,49,0.00,,---,0.00,VWS V14.01,2013-03-08 17:20:00,
2013-03-08 12:25:00,40.4,21.8,30.50,South,176,3.0,5.0,47,0.00,,---,0.00,VWS V14.01,2013-03-08 17:25:00,
2013-03-08 12:30:00,40.3,21.7,30.50,SSW,210,3.0,5.0,47,0.00,,---,0.00,VWS V14.01,2013-03-08 17:30:00,
2013-03-08 12:35:00,41.0,22.3,30.50,SSW,201,2.0,3.0,47,0.00,,---,0.00,VWS V14.01,2013-03-08 17:35:00,
2013-03-08 12:40:00,41.7,23.0,30.50,SSE,152,2.0,4.0,47,0.00,,---,0.00,VWS V14.01,2013-03-08 17:40:00,
2013-03-08 12:45:00,41.3,22.1,30.49,East,89,2.0,4.0,46,0.00,,---,0.00,VWS V14.01,2013-03-08 17:45:00,
2013-03-08 12:50:00,40.4,21.8,30.49,ESE,119,2.0,4.0,47,0.00,,---,0.00,VWS V14.01,2013-03-08 17:50:00,
2013-03-08 12:55:00,40.4,21.8,30.49,SE,134,1.0,4.0,47,0.00,,---,0.00,VWS V14.01,2013-03-08 17:55:00,
2013-03-08 13:00:00,40.8,22.1,30.49,ENE,58,0.0,4.0,47,0.00,,---,0.00,VWS V14.01,2013-03-08 18:00:00,
2013-03-08 13:05:00,41.1,22.4,30.49,ENE,64,1.0,2.0,47,0.00,,---,0.00,VWS V14.01,2013-03-08 18:05:00,
2013-03-08 13:10:00,42.1,22.8,30.49,SE,144,5.0,5.0,46,0.00,,---,0.00,VWS V14.01,2013-03-08 18:10:00,
2013-03-08 13:16:00,41.4,22.2,30.49,SE,138,2.0,6.0,46,0.00,,---,0.00,VWS V14.01,2013-03-08 18:16:00,
2013-03-08 13:21:00,41.4,22.2,30.48,South,186,3.0,6.0,46,0.00,,---,0.00,VWS V14.01,2013-03-08 18:21:00,
2013-03-08 13:26:00,42.0,22.7,30.48,ESE,111,2.0,6.0,46,0.00,,---,0.00,VWS V14.01,2013-03-08 18:26:00,
2013-03-08 13:30:00,41.0,22.3,30.47,SE,133,0.0,6.0,47,0.00,,---,0.00,VWS V14.01,2013-03-08 18:30:00,
2013-03-08 13:31:00,42.2,22.9,30.48,ENE,67,2.0,6.0,46,0.00,,---,0.00,VWS V14.01,2013-03-08 18:31:00,
2013-03-08 13:36:00,41.9,22.1,30.48,SSW,203,4.0,4.0,45,0.00,,---,0.00,VWS V14.01,2013-03-08 18:36:00,
2013-03-08 13:41:00,42.4,23.1,30.48,SE,137,3.0,4.0,46,0.00,,---,0.00,VWS V14.01,2013-03-08 18:41:00,
2013-03-08 13:46:00,42.7,22.9,30.48,SE,140,2.0,4.0,45,0.00,,---,0.00,VWS V14.01,2013-03-08 18:46:00,
2013-03-08 13:51:00,42.4,22.6,30.48,South,184,0.0,5.0,45,0.00,,---,0.00,VWS V14.01,2013-03-08 18:51:00,
2013-03-08 13:56:00,42.1,23.3,30.47,East,88,1.0,6.0,47,0.00,,---,0.00,VWS V14.01,2013-03-08 18:56:00,
2013-03-08 14:00:00,41.3,22.6,30.46,ENE,67,1.0,7.0,47,0.00,,---,0.00,VWS V14.01,2013-03-08 19:00:00,
2013-03-08 14:01:00,41.3,22.6,30.47,ESE,111,3.0,6.0,47,0.00,,---,0.00,VWS V14.01,2013-03-08 19:01:00,
2013-03-08 14:06:00,41.3,23.1,30.47,SE,125,3.0,4.0,48,0.00,,---,0.00,VWS V14.01,2013-03-08 19:06:00,
2013-03-08 14:11:00,41.2,22.5,30.47,SE,130,2.0,6.0,47,0.00,,---,0.00,VWS V14.01,2013-03-08 19:11:00,
2013-03-08 14:16:00,41.3,22.6,30.47,SW,225,3.0,6.0,47,0.00,,---,0.00,VWS V14.01,2013-03-08 19:16:00,
2013-03-08 14:21:00,41.1,22.4,30.47,South,188,1.0,6.0,47,0.00,,---,0.00,VWS V14.01,2013-03-08 19:21:00,
2013-03-08 14:26:00,41.2,22.5,30.47,ESE,121,1.0,6.0,47,0.00,,---,0.00,VWS V14.01,2013-03-08 19:26:00,
2013-03-08 14:30:00,40.7,23.0,30.46,South,173,2.0,7.0,49,0.00,,---,0.00,VWS V14.01,2013-03-08 19:30:00,
2013-03-08 14:31:00,41.0,22.3,30.47,WSW,242,2.0,6.0,47,0.00,,---,0.00,VWS V14.01,2013-03-08 19:31:00,
2013-03-08 14:36:00,41.0,22.8,30.47,ESE,114,3.0,5.0,48,0.00,,---,0.00,VWS V14.01,2013-03-08 19:36:00,
2013-03-08 14:41:00,41.0,22.3,30.46,SW,225,0.0,5.0,47,0.00,,---,0.00,VWS V14.01,2013-03-08 19:41:00,
2013-03-08 14:46:00,41.3,23.1,30.46,SSW,203,0.0,7.0,48,0.00,,---,0.00,VWS V14.01,2013-03-08 19:46:00,
2013-03-08 14:51:00,41.5,23.3,30.46,SE,124,4.0,7.0,48,0.00,,---,0.00,VWS V14.01,2013-03-08 19:51:00,
2013-03-08 14:56:00,41.5,22.8,30.46,ESE,109,0.0,7.0,47,0.00,,---,0.00,VWS V14.01,2013-03-08 19:56:00,
2013-03-08 15:00:00,41.1,22.9,30.45,ESE,117,2.0,5.0,48,0.00,,---,0.00,VWS V14.01,2013-03-08 20:00:00,
2013-03-08 15:01:00,41.4,22.7,30.46,ENE,73,2.0,7.0,47,0.00,,---,0.00,VWS V14.01,2013-03-08 20:01:00,
2013-03-08 15:06:00,41.3,23.1,30.46,South,176,3.0,3.0,48,0.00,,---,0.00,VWS V14.01,2013-03-08 20:06:00,
2013-03-08 15:11:00,41.2,23.0,30.46,East,95,4.0,6.0,48,0.00,,---,0.00,VWS V14.01,2013-03-08 20:11:00,
2013-03-08 15:16:00,41.1,22.9,30.46,SSW,205,4.0,7.0,48,0.00,,---,0.00,VWS V14.01,2013-03-08 20:16:00,
2013-03-08 15:21:00,41.1,22.9,30.46,South,184,5.0,7.0,48,0.00,,---,0.00,VWS V14.01,2013-03-08 20:21:00,
2013-03-08 15:26:00,40.8,23.1,30.46,SE,139,3.0,7.0,49,0.00,,---,0.00,VWS V14.01,2013-03-08 20:26:00,
2013-03-08 15:30:00,41.7,22.5,30.44,ESE,106,3.0,5.0,46,0.00,,---,0.00,VWS V14.01,2013-03-08 20:30:00,
2013-03-08 15:31:00,40.7,23.5,30.46,SE,142,3.0,7.0,50,0.00,,---,0.00,VWS V14.01,2013-03-08 20:31:00,
2013-03-08 15:36:00,40.9,23.2,30.45,SE,131,2.0,5.0,49,0.00,,---,0.00,VWS V14.01,2013-03-08 20:36:00,
2013-03-08 15:41:00,40.8,23.1,30.45,East,82,0.0,5.0,49,0.00,,---,0.00,VWS V14.01,2013-03-08 20:41:00,
2013-03-08 15:46:00,40.9,22.2,30.45,SE,130,3.0,5.0,47,0.00,,---,0.00,VWS V14.01,2013-03-08 20:46:00,
2013-03-08 15:51:00,41.1,22.4,30.45,ENE,75,3.0,5.0,47,0.00,,---,0.00,VWS V14.01,2013-03-08 20:51:00,
2013-03-08 15:56:00,40.9,22.7,30.45,SE,138,3.0,5.0,48,0.00,,---,0.00,VWS V14.01,2013-03-08 20:56:00,
2013-03-08 16:00:00,40.8,22.1,30.44,SE,129,1.0,6.0,47,0.00,,---,0.00,VWS V14.01,2013-03-08 21:00:00,
2013-03-08 16:01:00,41.1,22.4,30.45,NE,46,0.0,5.0,47,0.00,,---,0.00,VWS V14.01,2013-03-08 21:01:00,
2013-03-08 16:06:00,40.9,21.7,30.45,SSE,148,2.0,3.0,46,0.00,,---,0.00,VWS V14.01,2013-03-08 21:06:00,
2013-03-08 16:11:00,40.8,21.6,30.45,SSW,211,0.0,5.0,46,0.00,,---,0.00,VWS V14.01,2013-03-08 21:11:00,
2013-03-08 16:16:00,41.3,22.6,30.45,ESE,117,0.0,5.0,47,0.00,,---,0.00,VWS V14.01,2013-03-08 21:16:00,
2013-03-08 16:21:00,41.5,22.3,30.44,ESE,115,2.0,5.0,46,0.00,,---,0.00,VWS V14.01,2013-03-08 21:21:00,
2013-03-08 16:26:00,41.7,21.9,30.44,ESE,102,3.0,5.0,45,0.00,,---,0.00,VWS V14.01,2013-03-08 21:26:00,
2013-03-08 16:30:00,39.3,22.2,30.44,SE,144,2.0,6.0,50,0.00,,---,0.00,VWS V14.01,2013-03-08 21:30:00,
2013-03-08 16:31:00,41.6,22.4,30.44,SSW,198,1.0,5.0,46,0.00,,---,0.00,VWS V14.01,2013-03-08 21:31:00,
2013-03-08 16:36:00,41.5,22.3,30.44,South,173,3.0,5.0,46,0.00,,---,0.00,VWS V14.01,2013-03-08 21:36:00,
2013-03-08 16:41:00,41.4,22.7,30.44,SSW,193,3.0,5.0,47,0.00,,---,0.00,VWS V14.01,2013-03-08 21:41:00,
2013-03-08 16:46:00,41.2,22.5,30.44,SE,141,2.0,5.0,47,0.00,,---,0.00,VWS V14.01,2013-03-08 21:46:00,
2013-03-08 16:51:00,41.0,22.3,30.44,SSW,200,2.0,6.0,47,0.00,,---,0.00,VWS V14.01,2013-03-08 21:51:00,
2013-03-08 16:56:00,40.8,22.1,30.43,SE,134,4.0,6.0,47,0.00,,---,0.00,VWS V14.01,2013-03-08 21:56:00,
2013-03-08 17:00:00,37.5,23.7,30.44,ESE,122,4.0,6.0,57,0.00,,---,0.00,VWS V14.01,2013-03-08 22:00:00,
2013-03-08 17:01:00,40.8,22.1,30.44,SW,221,3.0,6.0,47,0.00,,---,0.00,VWS V14.01,2013-03-08 22:01:00,
2013-03-08 17:06:00,40.4,22.3,30.44,SE,129,4.0,5.0,48,0.00,,---,0.00,VWS V14.01,2013-03-08 22:06:00,
2013-03-08 17:11:00,39.9,22.3,30.44,SE,133,2.0,5.0,49,0.00,,---,0.00,VWS V14.01,2013-03-08 22:11:00,
2013-03-08 17:16:00,39.8,22.7,30.44,SE,129,3.0,6.0,50,0.00,,---,0.00,VWS V14.01,2013-03-08 22:16:00,
2013-03-08 17:21:00,39.6,22.0,30.44,SE,143,2.0,6.0,49,0.00,,---,0.00,VWS V14.01,2013-03-08 22:21:00,
2013-03-08 17:26:00,39.4,22.3,30.44,ESE,110,2.0,6.0,50,0.00,,---,0.00,VWS V14.01,2013-03-08 22:26:00,
2013-03-08 17:30:00,34.9,23.6,30.43,SE,134,0.0,4.0,63,0.00,,---,0.00,VWS V14.01,2013-03-08 22:30:00,
2013-03-08 17:31:00,39.3,22.2,30.44,SE,142,2.0,6.0,50,0.00,,---,0.00,VWS V14.01,2013-03-08 22:31:00,
2013-03-08 17:36:00,39.2,23.1,30.44,South,179,1.0,3.0,52,0.00,,---,0.00,VWS V14.01,2013-03-08 22:36:00,
2013-03-08 17:41:00,39.2,23.5,30.44,SE,129,2.0,3.0,53,0.00,,---,0.00,VWS V14.01,2013-03-08 22:41:00,
2013-03-08 17:46:00,39.0,23.8,30.43,SSE,158,3.0,5.0,54,0.00,,---,0.00,VWS V14.01,2013-03-08 22:46:00,
2013-03-08 17:51:00,38.5,23.8,30.44,SE,142,2.0,5.0,55,0.00,,---,0.00,VWS V14.01,2013-03-08 22:51:00,
2013-03-08 17:56:00,38.1,23.4,30.43,South,181,1.0,6.0,55,0.00,,---,0.00,VWS V14.01,2013-03-08 22:56:00,
2013-03-08 18:00:00,32.4,23.0,30.43,SE,133,0.0,1.0,68,0.00,,---,0.00,VWS V14.01,2013-03-08 23:00:00,
2013-03-08 18:01:00,37.6,23.3,30.44,SE,132,1.0,6.0,56,0.00,,---,0.00,VWS V14.01,2013-03-08 23:01:00,
2013-03-08 18:06:00,37.0,23.6,30.43,SE,145,3.0,4.0,58,0.00,,---,0.00,VWS V14.01,2013-03-08 23:06:00,
2013-03-08 18:11:00,36.5,23.5,30.43,ESE,117,0.0,4.0,59,0.00,,---,0.00,VWS V14.01,2013-03-08 23:11:00,
2013-03-08 18:16:00,36.0,23.9,30.43,SE,125,0.0,4.0,61,0.00,,---,0.00,VWS V14.01,2013-03-08 23:16:00,
2013-03-08 18:21:00,35.7,24.0,30.43,SE,133,0.0,4.0,62,0.00,,---,0.00,VWS V14.01,2013-03-08 23:21:00,
2013-03-08 18:26:00,35.4,23.7,30.43,SE,135,1.0,4.0,62,0.00,,---,0.00,VWS V14.01,2013-03-08 23:26:00,
2013-03-08 18:30:00,30.9,23.0,30.43,SE,133,0.0,0.0,72,0.00,,---,0.00,VWS V14.01,2013-03-08 23:30:00,
2013-03-08 18:31:00,35.0,23.7,30.43,SE,134,0.0,4.0,63,0.00,,---,0.00,VWS V14.01,2013-03-08 23:31:00,
2013-03-08 18:36:00,34.7,23.8,30.43,SE,134,0.0,1.0,64,0.00,,---,0.00,VWS V14.01,2013-03-08 23:36:00,
2013-03-08 18:41:00,34.3,23.4,30.43,SE,134,0.0,1.0,64,0.00,,---,0.00,VWS V14.01,2013-03-08 23:41:00,
2013-03-08 18:46:00,33.8,23.3,30.43,SE,133,0.0,1.0,65,0.00,,---,0.00,VWS V14.01,2013-03-08 23:46:00,
2013-03-08 18:51:00,33.3,23.2,30.43,SE,133,0.0,1.0,66,0.00,,---,0.00,VWS V14.01,2013-03-08 23:51:00,
2013-03-08 18:56:00,32.8,23.1,30.43,SE,133,0.0,1.0,67,0.00,,---,0.00,VWS V14.01,2013-03-08 23:56:00,
2013-03-08 19:00:00,29.8,23.2,30.44,SE,132,0.0,0.0,76,0.00,,---,0.00,VWS V14.01,2013-03-09 00:00:00,
2013-03-08 19:01:00,32.5,23.1,30.43,SE,133,0.0,1.0,68,0.00,,---,0.00,VWS V14.01,2013-03-09 00:01:00,
2013-03-08 19:06:00,32.2,23.2,30.43,SE,133,0.0,0.0,69,0.00,,---,0.00,VWS V14.01,2013-03-09 00:06:00,
2013-03-08 19:11:00,32.0,23.0,30.43,SE,133,0.0,0.0,69,0.00,,---,0.00,VWS V14.01,2013-03-09 00:11:00,
2013-03-08 19:16:00,31.6,22.6,30.43,SE,132,0.0,0.0,69,0.00,,---,0.00,VWS V14.01,2013-03-09 00:16:00,
2013-03-08 19:21:00,30.9,22.6,30.44,SE,133,0.0,0.0,71,0.00,,---,0.00,VWS V14.01,2013-03-09 00:21:00,
2013-03-08 19:26:00,30.8,22.9,30.43,SE,133,0.0,0.0,72,0.00,,---,0.00,VWS V14.01,2013-03-09 00:26:00,
2013-03-08 19:30:00,27.7,22.0,30.44,SE,132,0.0,0.0,79,0.00,,---,0.00,VWS V14.01,2013-03-09 00:30:00,
2013-03-08 19:31:00,30.9,23.0,30.43,SE,133,0.0,0.0,72,0.00,,---,0.00,VWS V14.01,2013-03-09 00:31:00,
2013-03-08 19:36:00,30.9,23.3,30.43,SE,133,0.0,0.0,73,0.00,,---,0.00,VWS V14.01,2013-03-09 00:36:00,
2013-03-08 19:41:00,30.7,23.1,30.44,SE,133,0.0,0.0,73,0.00,,---,0.00,VWS V14.01,2013-03-09 00:41:00,
2013-03-08 19:47:00,30.3,23.3,30.44,SE,133,0.0,0.0,75,0.00,,---,0.00,VWS V14.01,2013-03-09 00:47:00,
2013-03-08 19:52:00,30.1,23.1,30.43,SE,132,0.0,0.0,75,0.00,,---,0.00,VWS V14.01,2013-03-09 00:52:00,
2013-03-08 19:57:00,29.9,23.0,30.44,SE,132,0.0,0.0,75,0.00,,---,0.00,VWS V14.01,2013-03-09 00:57:00,
2013-03-08 20:00:00,27.6,22.8,30.43,SE,133,0.0,0.0,82,0.00,,---,0.00,VWS V14.01,2013-03-09 01:00:00,
2013-03-08 20:02:00,29.8,23.2,30.44,SE,132,0.0,0.0,76,0.00,,---,0.00,VWS V14.01,2013-03-09 01:02:00,
2013-03-08 20:07:00,29.6,23.0,30.44,SE,133,0.0,0.0,76,0.00,,---,0.00,VWS V14.01,2013-03-09 01:07:00,
2013-03-08 20:12:00,29.5,23.5,30.44,SE,133,0.0,0.0,78,0.00,,---,0.00,VWS V14.01,2013-03-09 01:12:00,
2013-03-08 20:17:00,29.4,23.4,30.44,SE,132,0.0,0.0,78,0.00,,---,0.00,VWS V14.01,2013-03-09 01:17:00,
2013-03-08 20:22:00,29.0,23.3,30.44,SE,132,0.0,0.0,79,0.00,,---,0.00,VWS V14.01,2013-03-09 01:22:00,
2013-03-08 20:27:00,28.3,22.6,30.44,SE,132,0.0,0.0,79,0.00,,---,0.00,VWS V14.01,2013-03-09 01:27:00,
2013-03-08 20:30:00,25.6,21.7,30.45,SE,133,0.0,0.0,85,0.00,,---,0.00,VWS V14.01,2013-03-09 01:30:00,
2013-03-08 20:32:00,27.7,22.0,30.44,SE,132,0.0,0.0,79,0.00,,---,0.00,VWS V14.01,2013-03-09 01:32:00,
2013-03-08 20:37:00,27.1,21.8,30.45,SE,133,0.0,0.0,80,0.00,,---,0.00,VWS V14.01,2013-03-09 01:37:00,
2013-03-08 20:42:00,26.6,21.9,30.44,SE,133,0.0,0.0,82,0.00,,---,0.00,VWS V14.01,2013-03-09 01:42:00,
2013-03-08 20:47:00,27.1,22.4,30.44,SE,133,0.0,0.0,82,0.00,,---,0.00,VWS V14.01,2013-03-09 01:47:00,
2013-03-08 20:52:00,27.5,22.7,30.44,SE,133,0.0,0.0,82,0.00,,---,0.00,VWS V14.01,2013-03-09 01:52:00,
2013-03-08 20:57:00,27.6,22.5,30.44,SE,133,0.0,0.0,81,0.00,,---,0.00,VWS V14.01,2013-03-09 01:57:00,
2013-03-08 21:00:00,26.1,22.2,30.44,SE,133,0.0,0.0,85,0.00,,---,0.00,VWS V14.01,2013-03-09 02:00:00,
2013-03-08 21:02:00,27.6,22.8,30.43,SE,133,0.0,0.0,82,0.00,,---,0.00,VWS V14.01,2013-03-09 02:02:00,
2013-03-08 21:07:00,27.4,22.6,30.43,SE,133,0.0,0.0,82,0.00,,---,0.00,VWS V14.01,2013-03-09 02:07:00,
2013-03-08 21:12:00,27.2,22.4,30.44,SE,133,0.0,0.0,82,0.00,,---,0.00,VWS V14.01,2013-03-09 02:12:00,
2013-03-08 21:17:00,26.6,21.6,30.44,SE,133,0.0,0.0,81,0.00,,---,0.00,VWS V14.01,2013-03-09 02:17:00,
2013-03-08 21:22:00,25.9,21.2,30.44,SE,133,0.0,0.0,82,0.00,,---,0.00,VWS V14.01,2013-03-09 02:22:00,
2013-03-08 21:27:00,25.6,21.5,30.44,SE,133,0.0,0.0,84,0.00,,---,0.00,VWS V14.01,2013-03-09 02:27:00,
2013-03-08 21:30:00,25.7,21.8,30.43,SE,132,0.0,0.0,85,0.00,,---,0.00,VWS V14.01,2013-03-09 02:30:00,
2013-03-08 21:32:00,25.6,21.7,30.45,SE,133,0.0,0.0,85,0.00,,---,0.00,VWS V14.01,2013-03-09 02:32:00,
2013-03-08 21:37:00,25.4,21.5,30.45,SE,132,0.0,0.0,85,0.00,,---,0.00,VWS V14.01,2013-03-09 02:37:00,
2013-03-08 21:42:00,25.3,21.7,30.44,SE,133,0.0,0.0,86,0.00,,---,0.00,VWS V14.01,2013-03-09 02:42:00,
2013-03-08 21:47:00,25.5,21.9,30.44,SE,133,0.0,0.0,86,0.00,,---,0.00,VWS V14.01,2013-03-09 02:47:00,
2013-03-08 21:52:00,25.5,21.9,30.44,SE,133,0.0,0.0,86,0.00,,---,0.00,VWS V14.01,2013-03-09 02:52:00,
2013-03-08 21:57:00,25.9,22.3,30.44,SE,133,0.0,0.0,86,0.00,,---,0.00,VWS V14.01,2013-03-09 02:57:00,
2013-03-08 22:00:00,24.3,21.3,30.42,SE,133,0.0,0.0,88,0.00,,---,0.00,VWS V14.01,2013-03-09 03:00:00,
2013-03-08 22:02:00,26.1,22.2,30.44,SE,132,0.0,0.0,85,0.00,,---,0.00,VWS V14.01,2013-03-09 03:02:00,
2013-03-08 22:07:00,26.1,22.2,30.44,SE,133,0.0,0.0,85,0.00,,---,0.00,VWS V14.01,2013-03-09 03:07:00,
2013-03-08 22:12:00,26.1,22.5,30.43,SE,133,0.0,0.0,86,0.00,,---,0.00,VWS V14.01,2013-03-09 03:12:00,
2013-03-08 22:17:00,26.0,22.1,30.43,SE,133,0.0,0.0,85,0.00,,---,0.00,VWS V14.01,2013-03-09 03:17:00,
2013-03-08 22:22:00,25.9,22.0,30.43,SE,133,0.0,0.0,85,0.00,,---,0.00,VWS V14.01,2013-03-09 03:22:00,
2013-03-08 22:27:00,25.8,21.9,30.43,SE,133,0.0,0.0,85,0.00,,---,0.00,VWS V14.01,2013-03-09 03:27:00,
2013-03-08 22:30:00,24.3,21.5,30.42,SE,132,0.0,0.0,89,0.00,,---,0.00,VWS V14.01,2013-03-09 03:30:00,
2013-03-08 22:32:00,25.6,21.7,30.43,SE,133,0.0,0.0,85,0.00,,---,0.00,VWS V14.01,2013-03-09 03:32:00,
2013-03-08 22:37:00,25.1,21.2,30.43,SE,132,0.0,0.0,85,0.00,,---,0.00,VWS V14.01,2013-03-09 03:37:00,
2013-03-08 22:42:00,24.7,20.8,30.43,SE,133,0.0,0.0,85,0.00,,---,0.00,VWS V14.01,2013-03-09 03:42:00,
2013-03-08 22:47:00,24.2,20.6,30.42,SE,132,0.0,0.0,86,0.00,,---,0.00,VWS V14.01,2013-03-09 03:47:00,
2013-03-08 22:52:00,24.1,20.8,30.42,SE,133,0.0,0.0,87,0.00,,---,0.00,VWS V14.01,2013-03-09 03:52:00,
2013-03-08 22:57:00,24.2,21.2,30.42,SE,132,0.0,0.0,88,0.00,,---,0.00,VWS V14.01,2013-03-09 03:57:00,
2013-03-08 23:00:00,23.2,20.7,30.42,SE,132,0.0,0.0,90,0.00,,---,0.00,VWS V14.01,2013-03-09 04:00:00,
2013-03-08 23:02:00,24.3,21.3,30.42,SE,133,0.0,0.0,88,0.00,,---,0.00,VWS V14.01,2013-03-09 04:02:00,
2013-03-08 23:08:00,24.5,21.5,30.42,SE,133,0.0,0.0,88,0.00,,---,0.00,VWS V14.01,2013-03-09 04:08:00,
2013-03-08 23:13:00,24.5,21.2,30.42,SE,133,0.0,0.0,87,0.00,,---,0.00,VWS V14.01,2013-03-09 04:13:00,
2013-03-08 23:18:00,24.6,21.6,30.42,SE,132,0.0,0.0,88,0.00,,---,0.00,VWS V14.01,2013-03-09 04:18:00,
2013-03-08 23:23:00,24.6,21.6,30.42,SE,133,0.0,0.0,88,0.00,,---,0.00,VWS V14.01,2013-03-09 04:23:00,
2013-03-08 23:28:00,24.3,21.3,30.42,SE,132,0.0,0.0,88,0.00,,---,0.00,VWS V14.01,2013-03-09 04:28:00,
2013-03-08 23:30:00,22.9,20.7,30.41,SE,133,0.0,0.0,91,0.00,,---,0.00,VWS V14.01,2013-03-09 04:30:00,
2013-03-08 23:33:00,24.3,21.5,30.42,SE,133,0.0,0.0,89,0.00,,---,0.00,VWS V14.01,2013-03-09 04:33:00,
2013-03-08 23:38:00,24.0,21.0,30.42,SE,133,0.0,0.0,88,0.00,,---,0.00,VWS V14.01,2013-03-09 04:38:00,
2013-03-08 23:43:00,24.0,21.0,30.42,SE,133,0.0,0.0,88,0.00,,---,0.00,VWS V14.01,2013-03-09 04:43:00,
2013-03-08 23:48:00,23.7,20.7,30.42,SE,133,0.0,0.0,88,0.00,,---,0.00,VWS V14.01,2013-03-09 04:48:00,
2013-03-08 23:53:00,23.3,20.3,30.42,SE,132,0.0,0.0,88,0.00,,---,0.00,VWS V14.01,2013-03-09 04:53:00,
2013-03-08 23:58:00,23.0,20.0,30.42,SE,133,0.0,0.0,88,0.00,,---,0.00,VWS V14.01,2013-03-09 04:58:00,